TimePST,TemperatureF,Dew PointF,Humidity,Sea Level PressureIn,VisibilityMPH,Wind Direction,Wind SpeedMPH,Gust SpeedMPH,PrecipitationIn,Events,Conditions,WindDirDegrees,DateUTC
12:00 AM,41.4,40.8,98,30.25,-9999.0,SW,2.3,-,N/A,,Unknown,220,2013-01-19 08:00:00
1:00 AM,42.3,41.5,97,30.25,-9999.0,South,9.2,-,N/A,,Unknown,180,2013-01-19 09:00:00
2:00 AM,43.0,41.4,94,30.25,-9999.0,South,10.4,-,N/A,,Unknown,170,2013-01-19 10:00:00
3:00 AM,43.0,41.4,94,30.25,-9999.0,South,10.4,-,N/A,,Unknown,170,2013-01-19 11:00:00
4:00 AM,43,41,90,30.25,,South,11.5,,,,,180,2013-01-19 12:00:00
4:00 AM,42.8,41.0,93,30.25,-9999.0,South,11.5,-,N/A,,Unknown,180,2013-01-19 12:00:00
5:00 AM,42.6,41.7,97,30.25,-9999.0,South,11.5,-,N/A,,Unknown,190,2013-01-19 13:00:00
6:00 AM,43.2,41.7,95,30.25,-9999.0,South,8.1,-,N/A,,Unknown,170,2013-01-19 14:00:00
7:00 AM,43.0,42.1,97,30.24,-9999.0,South,10.4,-,N/A,,Unknown,170,2013-01-19 15:00:00
8:00 AM,43.5,43.0,98,30.24,-9999.0,South,9.2,-,N/A,,Unknown,180,2013-01-19 16:00:00
9:00 AM,44.6,44.1,98,30.24,-9999.0,South,18.4,-,N/A,,Unknown,170,2013-01-19 17:00:00
10:00 AM,45,44,93,30.24,,SSE,20.7,,,,,160,2013-01-19 18:00:00
10:00 AM,44.6,43.7,97,30.24,-9999.0,SSE,20.7,-,N/A,,Unknown,160,2013-01-19 18:00:00
12:00 PM,45.0,42.3,90,30.24,-9999.0,SSE,18.4,-,N/A,,Unknown,160,2013-01-19 20:00:00
1:00 PM,45.1,41.9,88,30.22,-9999.0,SSE,19.6,-,N/A,,Unknown,160,2013-01-19 21:00:00
2:00 PM,45.1,42.1,89,30.22,-9999.0,SSE,19.6,-,N/A,,Unknown,150,2013-01-19 22:00:00
3:00 PM,45.3,41.7,87,30.21,-9999.0,SSE,19.6,-,N/A,,Unknown,150,2013-01-19 23:00:00
4:00 PM,46,42,80,30.23,,SSE,15.0,,,,,160,2013-01-20 00:00:00
4:00 PM,45.5,41.7,87,30.23,-9999.0,SSE,15.0,-,N/A,,Unknown,160,2013-01-20 00:00:00
5:00 PM,45.5,42.1,88,30.23,-9999.0,SSE,17.3,-,N/A,,Unknown,150,2013-01-20 01:00:00
6:00 PM,45.7,41.2,84,30.22,-9999.0,SSE,12.7,-,N/A,,Unknown,160,2013-01-20 02:00:00
7:00 PM,45.5,41.0,84,30.24,-9999.0,South,16.1,-,N/A,,Unknown,170,2013-01-20 03:00:00
8:00 PM,45.5,40.6,83,30.25,-9999.0,SSE,13.8,-,N/A,,Unknown,160,2013-01-20 04:00:00
9:00 PM,45.3,40.6,84,30.25,-9999.0,South,12.7,-,N/A,,Unknown,170,2013-01-20 05:00:00
10:00 PM,45,40,75,30.26,,South,13.8,,,,,180,2013-01-20 06:00:00
10:00 PM,45.0,39.7,82,30.26,-9999.0,South,13.8,-,N/A,,Unknown,180,2013-01-20 06:00:00
11:00 PM,44.8,39.2,81,30.25,-9999.0,South,13.8,-,N/A,,Unknown,170,2013-01-20 07:00:00